"Pseudo-MPEC" for 6J11D21

Created 2026 Sep 2 19:35:03 UT using Find_Orb

Click here for an explanation of pseudo-MPECs

 
 Astrometry: 
     6J11D21 0C2026 08 30.25569922 13 43.156-06 52 52.74   ~92JK 18.39rUNEOCPI41
     6J11D21 0C2026 08 30.27437222 14 09.994-06 50 49.33   ~92JK 18.40rUNEOCPI41
     6J11D21 0C2026 08 31.26675322 39 38.076-04 56 51.24   ~92JK 18.05rUNEOCPI41
     6J11D21 0C2026 08 31.30144622 40 28.744-04 52 47.16   ~92JK 18.03rUNEOCPI41
     6J11D21 0C2026 08 31.32320822 41 00.506-04 50 12.51   ~92JK 18.32iUNEOCPI41
     6J11D21 0C2026 08 31.37106222 42 10.308-04 44 33.07   ~92JK 18.88gUNEOCPI41
     6J11D21 0C2026 09 01.26959323 05 23.426-02 57 20.84   ~92JK 18.18rUNEOCPI41
     6J11D21 0C2026 09 01.31857223 06 34.141-02 51 29.33   ~92JK 18.86gUNEOCPI41
     6J11D21*KC2026 09 02.22468 23 29 12.74 -01 00 05.7    ~926K 17.7 GVNEOCPW94
     6J11D21 KC2026 09 02.23094 23 29 21.34 -00 59 22.2    ~926K 18.1 GVNEOCPW94
     6J11D21 KC2026 09 02.23716 23 29 29.92 -00 58 38.5    ~926K 17.6 GVNEOCPW94
     6J11D21 0C2026 09 02.32278923 31 40.316-00 52 33.11   ~92JK 18.29iUNEOCPI41
     6J11D21 1C2026 09 02.42245023 33 56.315-00 40 53.80   ~92AZ 18.22GVNEOCP703
     6J11D21 1C2026 09 02.42471323 33 59.436-00 40 37.88   ~92AZ 18.28GVNEOCP703
     6J11D21 1C2026 09 02.42924023 34 05.700-00 40 06.92   ~92AZ 18.68GVNEOCP703

Station data:
(703) Catalina Sky Survey  (N32.417029 W110.732640)
   US/Arizona.  Observer E. J. Christensen. Measurers T. Beuden, V. F.
   Carvajal, D. Fay, J. B. Fazekas, D. C. Fuls, A. R. Gibbs, A. D. Grauer, H.
   Gröller, J. K. Hogan, R. A. Kowalski, S. M. Larson, G. J. Leonard, D.
   Rankin, R. L. Seaman, F. C. Shelly, K. W. Wierzchoś. 0.68 m Schmidt + 10K
   CCD.
(I41) Palomar Mountain--ZTF  (N33.357336 W116.859780)  US/California.
   Observers B. T. Bolin, Z. T. F. Collaboration. Measurers B. T. Bolin,
   Z.-Y. Lin, F. J. Masci. 1.2-m f/2.4 Schmidt.
(W94) AMACS1, San Pedro de Atacama  (S22.953074 W68.179810)  Chile.  Observers
   A. Maury, G. Attard. Measurers A. Maury, G. Attard, D. Parrott. 0.28-m
   f/2.2 Schmidt + CCD.

Orbital elements:  6J11D21
   Perihelion 2026 Sep 3.286899 +/- 0.00303 TT =  6:53:08.0 (JD 2461286.786899)
Epoch 2026 Sep  2.0 TT = JDT 2461285.5   Earth MOID: 0.0343   Ma: 0.0355
M 359.658660989 +/- 0.0017          (J2000 ecliptic)             AutoNEOCP
n   0.265241582 +/- 0.000808        Peri.  177.030833 +/- 0.0042
a   2.399062939 +/- 0.00487         Node   164.044014 +/- 0.0015
e   0.56516189 +/- 0.000864         Incl.    0.981400 +/- 0.0010
P   3.71589                H 25.02  G  0.15   U  8.0
q 1.043203982 +/- 4.6e-5    Q 3.754921896 +/- 0.0097
From 15 observations 2026 Aug. 30-Sept. 2; mean residual 0".31
Residuals in arcseconds: 
260830 I41  .31+  .07-    260831 I41  .25+  .18+    260902 W94  .22+  .06-    
260830 I41  .18-  .29-    260901 I41  .47-  .21-    260902 I41  .25-  .77-    
260831 I41  .16-  .06+    260901 I41  .16+  .42+    260902 703  .04-  .22+    
260831 I41  .37-  .22-    260902 W94  .58+  .27+    260902 703  .19-  .39+    
260831 I41  .12+  .57+    260902 W94  .12+  .14-    260902 703  .22-  .15-    

Ephemerides (geocentric):
Date (UTC) HH   RA             Dec           delta  r     elong  mag " sig PA
---- --------  ------------   ------------  ------ ------ -----  --- --------
2026 09 02 20  23 43 55.726   +00 08 20.74  .03576 1.0432 163.5 18.7 .115  66
2026 09 02 21  23 44 55.008   +00 13 02.83  .03581 1.0432 163.3 18.8 .118  68
2026 09 02 22  23 45 54.133   +00 17 44.14  .03586 1.0432 163.1 18.8 .122  70
2026 09 02 23  23 46 53.100   +00 22 24.65  .03590 1.0432 162.9 18.8 .125  71
2026 09 03 00  23 47 51.906   +00 27 04.35  .03595 1.0432 162.7 18.8 .129  72
2026 09 03 01  23 48 50.551   +00 31 43.23  .03600 1.0432 162.5 18.8 .132  74
2026 09 03 02  23 49 49.033   +00 36 21.27  .03605 1.0432 162.3 18.8 .136  75
2026 09 03 03  23 50 47.349   +00 40 58.46  .03610 1.0432 162.1 18.8 .140  76
2026 09 03 04  23 51 45.499   +00 45 34.79  .03615 1.0432 161.8 18.8 .144  77
2026 09 03 05  23 52 43.481   +00 50 10.23  .03620 1.0432 161.6 18.8 .148  78
2026 09 03 06  23 53 41.293   +00 54 44.79  .03625 1.0432 161.4 18.8 .152  79
2026 09 03 07  23 54 38.934   +00 59 18.45  .03631 1.0432 161.2 18.9 .157  80
2026 09 03 08  23 55 36.403   +01 03 51.19  .03636 1.0432 161.0 18.9 .161  81
2026 09 03 09  23 56 33.698   +01 08 23.01  .03641 1.0432 160.8 18.9 .165  82
2026 09 03 10  23 57 30.817   +01 12 53.90  .03647 1.0432 160.6 18.9 .169  82
2026 09 03 11  23 58 27.760   +01 17 23.84  .03653 1.0432 160.4 18.9 .174  83
2026 09 03 12  23 59 24.524   +01 21 52.81  .03658 1.0432 160.2 18.9 .178  84
2026 09 03 13  00 00 21.110   +01 26 20.83  .03664 1.0432 160.0 18.9 .183  84
2026 09 03 14  00 01 17.515   +01 30 47.86  .03670 1.0432 159.8 18.9 .188  85
2026 09 03 15  00 02 13.738   +01 35 13.90  .03676 1.0432 159.6 18.9 .192  86
2026 09 03 16  00 03 09.779   +01 39 38.95  .03681 1.0432 159.4 18.9 .197  86
2026 09 03 17  00 04 05.636   +01 44 02.99  .03687 1.0432 159.2 19.0 .202  87
2026 09 03 18  00 05 01.307   +01 48 26.01  .03694 1.0432 159.0 19.0 .206  87
2026 09 03 19  00 05 56.793   +01 52 48.01  .03700 1.0432 158.8 19.0 .211  88
2026 09 03 20  00 06 52.091   +01 57 08.97  .03706 1.0432 158.6 19.0 .216  88
2026 09 03 21  00 07 47.201   +02 01 28.89  .03712 1.0432 158.4 19.0 .221  89
2026 09 03 22  00 08 42.122   +02 05 47.76  .03719 1.0432 158.2 19.0 .226  89
2026 09 03 23  00 09 36.853   +02 10 05.57  .03725 1.0432 158.0 19.0 .230  89
2026 09 04 00  00 10 31.393   +02 14 22.31  .03731 1.0432 157.8 19.0 .235  90
2026 09 04 01  00 11 25.741   +02 18 37.99  .03738 1.0432 157.6 19.0 .240  90
2026 09 04 02  00 12 19.896   +02 22 52.58  .03745 1.0433 157.4 19.0 .245  90
2026 09 04 03  00 13 13.858   +02 27 06.09  .03751 1.0433 157.2 19.0 .250  91
2026 09 04 04  00 14 07.625   +02 31 18.50  .03758 1.0433 157.0 19.1 .255  91
2026 09 04 05  00 15 01.197   +02 35 29.81  .03765 1.0433 156.8 19.1 .260  91
2026 09 04 06  00 15 54.573   +02 39 40.02  .03772 1.0433 156.6 19.1 .265  92
2026 09 04 07  00 16 47.753   +02 43 49.11  .03779 1.0433 156.5 19.1 .270  92
2026 09 04 08  00 17 40.736   +02 47 57.09  .03786 1.0433 156.3 19.1 .275  92
2026 09 04 09  00 18 33.520   +02 52 03.95  .03793 1.0433 156.1 19.1 .281  92
2026 09 04 10  00 19 26.106   +02 56 09.68  .03800 1.0433 155.9 19.1 .286  93
2026 09 04 11  00 20 18.494   +03 00 14.28  .03807 1.0433 155.7 19.1 .291  93
2026 09 04 12  00 21 10.681   +03 04 17.74  .03814 1.0433 155.5 19.1 .296  93
2026 09 04 13  00 22 02.669   +03 08 20.06  .03822 1.0433 155.3 19.1 .301  93
2026 09 04 14  00 22 54.455   +03 12 21.24  .03829 1.0433 155.2 19.2 .306  94
2026 09 04 15  00 23 46.041   +03 16 21.26  .03837 1.0433 155.0 19.2 .311  94
2026 09 04 16  00 24 37.425   +03 20 20.14  .03844 1.0433 154.8 19.2 .316  94
2026 09 04 17  00 25 28.607   +03 24 17.86  .03852 1.0434 154.6 19.2 .321  94
2026 09 04 18  00 26 19.587   +03 28 14.42  .03859 1.0434 154.4 19.2 .327  94
2026 09 04 19  00 27 10.364   +03 32 09.82  .03867 1.0434 154.3 19.2 .332  94